St. Johns, AZ

5:30 PM MST on June 28, 2017 (GMT -0700)
Saint Johns Industrial

Weather History for KSJN - March, 2013

Change the Weather History Date:

Thursday, March 21, 2013

  Actual Average (KLSB) Record (KLSB)
Temperature  
Mean Temperature 47 °F -  
Max Temperature 64 °F 72 °F 80 °F (2016)
Min Temperature 30 °F 31 °F 42 °F (2013)
Degree Days  
Heating Degree Days 18    
Moisture  
Dew Point 19 °F    
Average Humidity 27    
Maximum Humidity 59    
Minimum Humidity 5    
Precipitation  
Precipitation 0.00 in - - ()
Sea Level Pressure  
Sea Level Pressure 29.67 in    
Wind  
Wind Speed 10 mph (West)    
Max Wind Speed 22 mph    
Max Gust Speed 33 mph    
Visibility 10 miles    
Events      
Averages and records for this station are not official NWS values.
T = Trace of Precipitation, MM = Missing Value Source: NWS Daily Summary

Daily Weather History Graph

Daily Weather History Graph

Search for Another Location

Airport or City:

Trip Planner

Search our weather history database for the weather conditions in past years. The results will help you decide how hot, cold, wet, or windy it might be!

Date:

Astronomy

Mar. 21, 2013 Rise Set
Actual Time 6:19 AM MST 6:30 PM MST
Civil Twilight 5:54 AM MST 6:55 PM MST
Nautical Twilight 5:24 AM MST 7:24 PM MST
Astronomical Twilight 4:55 AM MST 7:54 PM MST
Moon 1:14 PM MST (3/21) 2:31 AM MST (3/21)
Length of Visible Light 13h 01m
Length of Day
12h 10m
Waxing Gibbous, 69% of the Moon is Illuminated
Mar 21
Waxing Gibbous
Mar 27
Full
Apr 2
Last Quarter
Apr 10
New
Apr 18
First Quarter

Hourly Weather History & Observations

Time (MST) Temp. Windchill Dew Point Humidity Pressure Visibility Wind Dir Wind Speed Gust Speed Precip Events Conditions
12:54 AM 51.1 °F - 24.1 °F 35% 29.72 in 10.0 mi SW 8.1 mph - N/A   Clear
1:54 AM 48.9 °F - 25.0 °F 39% 29.71 in 10.0 mi West 6.9 mph - N/A   Clear
2:54 AM 51.1 °F - 26.1 °F 38% 29.68 in 10.0 mi WNW 5.8 mph - N/A   Clear
3:54 AM 53.1 °F - 27.0 °F 37% 29.68 in 10.0 mi West 9.2 mph - N/A   Clear
4:54 AM 53.1 °F - 27.0 °F 37% 29.69 in 10.0 mi West 9.2 mph - N/A   Mostly Cloudy
5:54 AM 50.0 °F - 27.0 °F 41% 29.71 in 10.0 mi West 3.5 mph - N/A   Overcast
6:54 AM 46.0 °F 43.1 °F 27.0 °F 47% 29.72 in 10.0 mi West 5.8 mph - N/A   Clear
7:54 AM 55.0 °F - 27.0 °F 34% 29.70 in 10.0 mi WSW 17.3 mph 21.9 mph N/A   Clear
8:54 AM 57.9 °F - 27.0 °F 31% 29.70 in 10.0 mi West 21.9 mph 29.9 mph N/A   Clear
9:54 AM 61.0 °F - 26.1 °F 26% 29.69 in 10.0 mi West 17.3 mph 26.5 mph N/A   Clear
10:54 AM 62.1 °F - 21.0 °F 21% 29.68 in 10.0 mi West 17.3 mph 20.7 mph N/A   Clear
11:54 AM 66.0 °F - 17.1 °F 15% 29.67 in 10.0 mi West 19.6 mph 28.8 mph N/A   Clear
12:54 PM 66.9 °F - 10.9 °F 11% 29.64 in 10.0 mi WNW 17.3 mph 29.9 mph N/A   Clear
1:54 PM 70.0 °F - 7.0 °F 9% 29.60 in 10.0 mi WNW 20.7 mph 33.4 mph N/A   Clear
2:54 PM 68.0 °F - 3.9 °F 8% 29.59 in 10.0 mi WNW 16.1 mph 29.9 mph N/A   Clear
3:54 PM 68.0 °F - 1.9 °F 7% 29.57 in 10.0 mi West 11.5 mph 25.3 mph N/A   Clear
4:54 PM 66.9 °F - 6.1 °F 9% 29.57 in 10.0 mi West 13.8 mph 27.6 mph N/A   Clear
5:54 PM 64.0 °F - 19.9 °F 18% 29.60 in 10.0 mi WSW 16.1 mph 25.3 mph N/A   Clear
6:54 PM 59.0 °F - 21.0 °F 23% 29.64 in 10.0 mi SW 13.8 mph - N/A   Clear
7:54 PM 55.0 °F - 19.9 °F 25% 29.64 in 10.0 mi WSW 12.7 mph - N/A   Clear
8:54 PM 53.1 °F - 27.0 °F 37% 29.64 in 10.0 mi SW 15.0 mph - N/A   Clear
9:54 PM 51.1 °F - 27.0 °F 39% 29.66 in 10.0 mi SW 11.5 mph - N/A   Clear
10:54 PM 50.0 °F - 25.0 °F 38% 29.67 in 10.0 mi North 5.8 mph - N/A   Clear
11:54 PM 45.0 °F 43.5 °F 25.0 °F 46% 29.67 in 10.0 mi ESE 3.5 mph - N/A   Clear